Ionia, MI

11:07 PM EST on November 22, 2017 (GMT -0500)
Ionia

Weather History for KY70 - October, 2012

Change the Weather History Date:

Friday, October 12, 2012

  Actual Average (KGRR) Record (KGRR)
Temperature  
Mean Temperature 40 °F -  
Max Temperature 49 °F 62 °F 84 °F (1930)
Min Temperature 32 °F 40 °F 27 °F (1987)
Degree Days  
Heating Degree Days 24    
Moisture  
Dew Point 29 °F    
Average Humidity 64    
Maximum Humidity 91    
Minimum Humidity 30    
Precipitation  
Precipitation 0.00 in - - ()
Sea Level Pressure  
Sea Level Pressure 30.36 in    
Wind  
Wind Speed 4 mph (NE)    
Max Wind Speed 14 mph    
Max Gust Speed -    
Visibility 10 miles    
Events Rain    
Averages and records for this station are not official NWS values.
T = Trace of Precipitation, MM = Missing Value Source: NWS Daily Summary

Daily Weather History Graph

Daily Weather History Graph

Search for Another Location

Airport or City:

Trip Planner

Search our weather history database for the weather conditions in past years. The results will help you decide how hot, cold, wet, or windy it might be!

Date:

Astronomy

Oct. 12, 2012 Rise Set
Actual Time 7:50 AM EDT 7:01 PM EDT
Civil Twilight 7:22 AM EDT 7:30 PM EDT
Nautical Twilight 6:49 AM EDT 8:02 PM EDT
Astronomical Twilight 6:16 AM EDT 8:35 PM EDT
Moon 4:28 AM EDT (10/12) 5:14 PM EDT (10/12)
Length of Visible Light 12h 07m
Length of Day
11h 11m
Waning Crescent, 11% of the Moon is Illuminated
Oct 12
Waning Crescent
Oct 15
New
Oct 21
First Quarter
Oct 29
Full
Nov 6
Last Quarter

Hourly Weather History & Observations

Time (EDT) Temp. Windchill Dew Point Humidity Pressure Visibility Wind Dir Wind Speed Gust Speed Precip Events Conditions
12:14 AM 43.9 °F 40.5 °F 35.6 °F 73% 30.19 in 10.0 mi NW 5.8 mph - N/A Rain Light Rain
12:34 AM 43.7 °F - 36.5 °F 76% 30.20 in 10.0 mi Calm Calm - N/A   Overcast
12:54 AM 43.9 °F 42.3 °F 36.7 °F 76% 30.21 in 10.0 mi NW 3.5 mph - N/A   Overcast
1:14 AM 43.7 °F 41.1 °F 36.5 °F 76% 30.22 in 10.0 mi WNW 4.6 mph - N/A   Overcast
1:34 AM 43.2 °F 40.5 °F 36.1 °F 76% 30.22 in 10.0 mi NW 4.6 mph - N/A   Overcast
2:14 AM 42.3 °F 38.6 °F 36.0 °F 78% 30.24 in 10.0 mi NNW 5.8 mph - N/A   Clear
2:34 AM 41.9 °F 39.0 °F 33.3 °F 71% 30.24 in 10.0 mi North 4.6 mph - N/A   Clear
2:54 AM 41.2 °F 39.2 °F 32.5 °F 71% 30.25 in 10.0 mi North 3.5 mph - N/A   Clear
3:14 AM 40.5 °F 37.3 °F 32.0 °F 72% 30.26 in 10.0 mi NNW 4.6 mph - N/A   Clear
3:34 AM 39.6 °F 36.3 °F 32.0 °F 74% 30.26 in 10.0 mi NNW 4.6 mph - N/A   Clear
4:14 AM 37.9 °F 34.4 °F 32.0 °F 79% 30.28 in 10.0 mi NNW 4.6 mph - N/A   Clear
4:34 AM 37.4 °F 33.8 °F 31.6 °F 80% 30.29 in 10.0 mi NNW 4.6 mph - N/A   Clear
4:54 AM 36.5 °F 32.7 °F 31.3 °F 81% 30.29 in 10.0 mi NNW 4.6 mph - N/A   Clear
5:14 AM 36.5 °F 32.7 °F 31.1 °F 81% 30.30 in 10.0 mi NNW 4.6 mph - N/A   Clear
5:34 AM 36.1 °F 32.3 °F 31.1 °F 82% 30.31 in 10.0 mi NNW 4.6 mph - N/A   Clear
5:54 AM 35.6 °F 31.7 °F 30.9 °F 83% 30.32 in 10.0 mi NNW 4.6 mph - N/A   Clear
6:14 AM 34.9 °F 32.0 °F 30.9 °F 85% 30.33 in 10.0 mi NW 3.5 mph - N/A   Clear
6:34 AM 34.7 °F 30.6 °F 30.7 °F 85% 30.34 in 10.0 mi NNW 4.6 mph - N/A   Clear
6:54 AM 34.3 °F 29.2 °F 30.6 °F 86% 30.34 in 10.0 mi NNW 5.8 mph - N/A   Clear
7:14 AM 34.0 °F 31.0 °F 30.6 °F 87% 30.36 in 10.0 mi NNW 3.5 mph - N/A   Clear
7:34 AM 33.8 °F - 30.6 °F 88% 30.36 in 10.0 mi Calm Calm - N/A   Clear
7:54 AM 32.4 °F - 30.0 °F 91% 30.37 in 10.0 mi Calm Calm - N/A   Clear
8:14 AM 33.3 °F - 30.9 °F 91% 30.38 in 10.0 mi Calm Calm - N/A   Clear
8:34 AM 34.3 °F - 30.9 °F 87% 30.39 in 10.0 mi Calm Calm - N/A   Clear
8:54 AM 35.2 °F - 31.1 °F 85% 30.40 in 10.0 mi Calm Calm - N/A   Clear
9:14 AM 36.0 °F 32.1 °F 32.0 °F 86% 30.41 in 10.0 mi North 4.6 mph - N/A   Clear
9:34 AM 37.6 °F 31.6 °F 32.4 °F 81% 30.41 in 10.0 mi NNE 8.1 mph - N/A   Clear
9:54 AM 38.8 °F 34.6 °F 32.2 °F 77% 30.42 in 10.0 mi NE 5.8 mph - N/A   Clear
10:14 AM 40.1 °F 34.7 °F 31.6 °F 72% 30.43 in 10.0 mi NNE 8.1 mph - N/A   Clear
10:34 AM 41.2 °F 36.6 °F 30.4 °F 65% 30.44 in 10.0 mi NNE 6.9 mph - N/A   Clear
10:54 AM 42.4 °F 38.1 °F 31.1 °F 64% 30.44 in 10.0 mi NNE 6.9 mph - N/A   Clear
11:14 AM 43.7 °F 38.6 °F 30.2 °F 59% 30.44 in 10.0 mi NNE 9.2 mph - N/A   Clear
11:34 AM 44.6 °F 38.1 °F 29.5 °F 55% 30.45 in 10.0 mi ENE 13.8 mph - N/A   Clear
12:14 PM 45.5 °F 41.8 °F 28.2 °F 51% 30.45 in 10.0 mi NNE 6.9 mph - N/A   Clear
12:34 PM 45.9 °F 41.2 °F 27.9 °F 49% 30.45 in 10.0 mi ENE 9.2 mph - N/A   Scattered Clouds
12:54 PM 46.0 °F 41.9 °F 26.6 °F 47% 30.45 in 10.0 mi East 8.1 mph - N/A   Clear
1:14 PM 46.4 °F - 26.6 °F 46% 30.45 in 10.0 mi Calm Calm - N/A   Clear
1:34 PM 47.1 °F - 27.3 °F 46% 30.44 in 10.0 mi Calm Calm - N/A   Scattered Clouds
1:54 PM 46.8 °F - 25.3 °F 43% 30.44 in 10.0 mi Calm Calm - N/A   Scattered Clouds
2:34 PM 48.2 °F - 25.7 °F 42% 30.43 in 10.0 mi Calm Calm - N/A   Scattered Clouds
2:54 PM 48.4 °F - 25.0 °F 40% 30.42 in 10.0 mi ESE 6.9 mph - N/A   Scattered Clouds
3:14 PM 48.2 °F - 23.2 °F 37% 30.41 in 10.0 mi SE 3.5 mph - N/A   Clear
3:34 PM 48.6 °F - 22.5 °F 36% 30.41 in 10.0 mi Calm Calm - N/A   Clear
3:54 PM 48.9 °F - 21.4 °F 34% 30.41 in 10.0 mi East 5.8 mph - N/A   Clear
4:14 PM 49.3 °F - 18.5 °F 30% 30.40 in 10.0 mi Calm Calm - N/A   Clear
4:34 PM 48.7 °F - 19.4 °F 31% 30.40 in 10.0 mi Calm Calm - N/A   Clear
4:54 PM 49.3 °F - 18.7 °F 30% 30.40 in 10.0 mi SE 4.6 mph - N/A   Clear
5:14 PM 49.1 °F - 18.9 °F 30% 30.39 in 10.0 mi East 5.8 mph - N/A   Clear
5:34 PM 48.9 °F - 18.7 °F 30% 30.39 in 10.0 mi Calm Calm - N/A   Clear
6:14 PM 47.8 °F - 23.0 °F 38% 30.37 in 10.0 mi East 3.5 mph - N/A   Clear
6:54 PM 46.0 °F - 23.2 °F 41% 30.37 in 10.0 mi Calm Calm - N/A   Clear
7:14 PM 42.4 °F - 26.4 °F 53% 30.37 in 10.0 mi Calm Calm - N/A   Clear
7:34 PM 41.0 °F 39.0 °F 26.4 °F 56% 30.37 in 10.0 mi East 3.5 mph - N/A   Clear
7:54 PM 40.1 °F 38.0 °F 27.0 °F 59% 30.37 in 10.0 mi East 3.5 mph - N/A   Clear
8:14 PM 39.4 °F 36.1 °F 26.6 °F 60% 30.37 in 10.0 mi East 4.6 mph - N/A   Clear
8:34 PM 37.8 °F 34.2 °F 26.8 °F 65% 30.37 in 10.0 mi East 4.6 mph - N/A   Clear
8:54 PM 36.9 °F 33.1 °F 27.0 °F 67% 30.37 in 10.0 mi East 4.6 mph - N/A   Clear
9:14 PM 37.0 °F 34.5 °F 26.4 °F 65% 30.37 in 10.0 mi East 3.5 mph - N/A   Clear
9:34 PM 40.1 °F 38.0 °F 25.9 °F 57% 30.37 in 10.0 mi East 3.5 mph - N/A   Clear
10:14 PM 35.6 °F 32.8 °F 26.2 °F 69% 30.37 in 10.0 mi East 3.5 mph - N/A   Clear
10:34 PM 33.6 °F 28.4 °F 26.8 °F 76% 30.37 in 10.0 mi East 5.8 mph - N/A   Clear
10:54 PM 34.7 °F 29.6 °F 26.4 °F 72% 30.36 in 10.0 mi ESE 5.8 mph - N/A   Clear
11:14 PM 33.8 °F 29.6 °F 26.4 °F 74% 30.36 in 10.0 mi ESE 4.6 mph - N/A   Clear
11:54 PM 32.9 °F 29.8 °F 26.8 °F 78% 30.35 in 10.0 mi ESE 3.5 mph - N/A   Clear